Location: T�chigga el Be�da
(16.4766°N, 9.3887°W)
Time: 14:19:22
(UTC+00:00)

GPS 2-18 Rocket1 - Pass Details

Date: 27 February 2020
Orbit: 459 x 516 km, 20.9° (Epoch: 29 March)

Event Time Altitude Azimuth Distance (km) Brightness Sun altitude
Rises 19:02:02 0° 262° (W) 2,591 9.9 -5.1°
Reaches altitude 10° 19:04:18 10° 265° (W) 1,699 7.7 -5.7°
Maximum altitude 19:08:13 68° 348° (NNW) 531 3.3 -6.6°
Drops below altitude 10° 19:12:04 10° 72° (ENE) 1,667 5.1 -7.5°
Enters shadow 19:12:14 - 73° (ENE) 1,732 5.2 -7.6°
